QPF
0.00 0.00 0.00 0.00 0.00 0.00 0.00 0.00 0.00 0.00 0.00 0.00 0.00 0.00 0.00 0.00 0.00 0.00 0.00 0.00 0.00 0.00 0.00 0.00 0.01 0.01 0.01 0.00 0.01 0.01 0.01 0.03 0.03 0.02 0.01 0.01 0.00 0.00 0.00 0.00 0.00 0.00 0.00 0.02
0.00 0.00 0.00 0.00 0.00 0.00 0.00 0.00 0.00 0.00 0.00 0.00 0.00 0.00 0.00 0.00 0.00 0.00 0.00 0.00 0.00 0.00 0.00 0.00 0.00 0.00 0.00 0.00 0.00 0.00 0.00 0.00 0.00 0.00 0.00 0.00 0.00 0.00 0.00 0.00 0.01 0.00 0.05 0.10
0.00 0.00 0.00 0.00 0.00 0.00 0.00 0.00 0.00 0.00 0.00 0.00 0.00 0.00 0.00 0.00 0.00 0.00 0.00 0.00 0.00 0.00 0.00 0.00 0.00 0.00 0.00 0.00 0.00 0.00 0.00 0.00 0.00 0.00 0.00 0.00 0.00 0.00 0.00 0.01 0.03 0.11 0.14 0.12
0.00 0.00 0.00 0.00 0.00 0.00 0.00 0.00 0.00 0.00 0.00 0.00 0.00 0.00 0.00 0.00 0.00 0.00 0.00 0.00 0.00 0.00 0.00 0.00 0.00 0.00 0.00 0.00 0.00 0.00 0.00 0.00 0.00 0.00 0.00 0.00 0.00 0.00 0.02 0.06 0.14 0.16 0.10 0.03
0.00 0.00 0.00 0.00 0.00 0.00 0.00 0.00 0.00 0.00 0.00 0.00 0.00 0.00 0.00 0.00 0.00 0.00 0.00 0.00 0.00 0.00 0.00 0.00 0.00 0.00 0.00 0.00 0.00 0.00 0.00 0.00 0.00 0.00 0.00 0.00 0.01 0.04 0.08 0.08 0.03 0.00 0.00 0.00
0.00 0.00 0.00 0.00 0.00 0.00 0.00 0.00 0.00 0.00 0.00 0.00 0.00 0.00 0.00 0.00 0.00 0.00 0.00 0.00 0.00 0.00 0.00 0.00 0.00 0.00 0.00 0.00 0.00 0.00 0.00 0.00 0.00 0.00 0.00 0.01 0.03 0.02 0.01 0.00 0.00 0.00 0.00 0.00
0.00 0.00 0.00 0.00 0.00 0.00 0.00 0.00 0.00 0.00 0.00 0.00 0.00 0.00 0.00 0.00 0.00 0.00 0.00 0.00 0.00 0.00 0.00 0.00 0.00 0.00 0.00 0.00 0.00 0.00 0.00 0.00 0.00 0.00 0.00 0.00 0.00 0.00 0.00 0.00 0.00 0.00 0.00 0.00
0.00 0.00 0.00 0.00 0.00 0.00 0.00 0.00 0.00 0.00 0.00 0.00 0.00 0.00 0.00 0.00 0.00 0.00 0.00 0.00 0.00 0.00 0.00 0.00 0.00 0.00 0.00 0.00 0.00 0.00 0.00 0.00 0.00 0.00 0.00 0.00 0.00 0.00 0.00 0.00 0.00 0.00 0.00 0.00
0.00 0.00 0.00 0.00 0.00 0.00 0.00 0.00 0.00 0.00 0.00 0.00 0.00 0.00 0.00 0.00 0.00 0.00 0.00 0.00 0.00 0.00 0.00 0.00 0.00 0.00 0.00 0.00 0.00 0.00 0.00 0.00 0.00 0.00 0.00 0.00 0.00 0.00 0.00 0.00 0.00 0.00 0.00 0.00
0.00 0.00 0.00 0.00 0.00 0.00 0.00 0.00 0.00 0.00 0.00 0.00 0.00 0.00 0.00 0.00 0.00 0.00 0.00 0.00 0.00 0.00 0.00 0.00 0.00 0.00 0.00 0.00 0.00 0.00 0.00 0.00 0.00 0.00 0.00 0.00 0.00 0.00 0.00 0.00 0.00 0.00 0.00 0.00
0.00 0.00 0.00 0.00 0.00 0.00 0.00 0.00 0.00 0.00 0.00 0.00 0.00 0.00 0.00 0.00 0.00 0.00 0.00 0.00 0.00 0.00 0.00 0.00 0.00 0.00 0.00 0.00 0.00 0.00 0.00 0.00 0.00 0.00 0.00 0.00 0.00 0.00 0.00 0.00 0.00 0.00 0.00 0.00
0.00 0.00 0.00 0.00 0.00 0.00 0.00 0.00 0.00 0.00 0.00 0.00 0.00 0.00 0.00 0.00 0.00 0.00 0.00 0.00 0.00 0.00 0.00 0.00 0.00 0.00 0.00 0.00 0.00 0.00 0.00 0.00 0.00 0.00 0.00 0.00 0.00 0.00 0.00 0.00 0.00 0.00 0.00 0.00
0.00 0.00 0.00 0.00 0.00 0.00 0.00 0.00 0.00 0.00 0.00 0.00 0.00 0.00 0.00 0.00 0.00 0.00 0.00 0.00 0.00 0.00 0.00 0.00 0.00 0.00 0.00 0.00 0.00 0.00 0.00 0.00 0.00 0.00 0.00 0.00 0.00 0.00 0.00 0.00 0.00 0.00 0.00 0.00
0.00 0.00 0.00 0.00 0.00 0.00 0.00 0.00 0.00 0.00 0.00 0.00 0.00 0.00 0.00 0.00 0.00 0.00 0.00 0.00 0.00 0.00 0.00 0.00 0.00 0.00 0.00 0.00 0.00 0.00 0.00 0.00 0.00 0.00 0.00 0.00 0.00 0.00 0.00 0.00 0.00 0.00 0.00 0.00
0.00 0.00 0.00 0.00 0.00 0.00 0.00 0.00 0.00 0.00 0.00 0.00 0.00 0.00 0.00 0.00 0.00 0.00 0.00 0.00 0.00 0.00 0.00 0.00 0.00 0.00 0.00 0.00 0.00 0.00 0.00 0.00 0.00 0.00 0.00 0.00 0.00 0.00 0.00 0.00 0.00 0.00 0.00 0.00
0.00 0.00 0.00 0.00 0.00 0.00 0.00 0.00 0.00 0.00 0.00 0.00 0.00 0.00 0.00 0.00 0.00 0.00 0.00 0.00 0.00 0.00 0.00 0.00 0.00 0.00 0.00 0.00 0.00 0.00 0.00 0.00 0.00 0.00 0.00 0.00 0.00 0.00 0.00 0.00 0.00 0.00 0.00 0.00
0.00 0.00 0.00 0.00 0.00 0.00 0.00 0.00 0.00 0.01 0.03 0.05 0.06 0.06 0.06 0.04 0.01 0.00 0.00 0.00 0.00 0.00 0.00 0.00 0.00 0.00 0.00 0.00 0.00 0.00 0.00 0.00 0.00 0.00 0.00 0.00 0.00 0.00 0.00 0.00 0.00 0.00 0.00 0.00
0.02 0.01 0.01 0.01 0.01 0.00 0.00 0.00 0.02 0.07 0.11 0.13 0.13 0.12 0.07 0.02 0.00 0.00 0.00 0.00 0.00 0.00 0.00 0.00 0.00 0.00 0.00 0.00 0.00 0.00 0.00 0.00 0.00 0.00 0.00 0.00 0.00 0.00 0.00 0.00 0.00 0.00 0.00 0.00
0.08 0.06 0.04 0.01 0.01 0.00 0.00 0.02 0.08 0.11 0.12 0.10 0.08 0.04 0.01 0.00 0.00 0.00 0.00 0.00 0.00 0.00 0.00 0.00 0.00 0.00 0.00 0.00 0.00 0.00 0.00 0.00 0.00 0.00 0.00 0.00 0.00 0.00 0.00 0.00 0.00 0.00 0.00 0.00
0.01 0.01 0.00 0.00 0.01 0.02 0.07 0.12 0.12 0.10 0.08 0.04 0.01 0.00 0.00 0.00 0.00 0.00 0.00 0.00 0.00 0.00 0.00 0.00 0.00 0.00 0.00 0.00 0.00 0.00 0.00 0.00 0.00 0.00 0.00 0.00 0.00 0.00 0.00 0.00 0.00 0.00 0.00 0.00
0.02 0.03 0.05 0.09 0.12 0.13 0.10 0.07 0.04 0.02 0.01 0.00 0.00 0.00 0.00 0.00 0.00 0.00 0.00 0.00 0.00 0.00 0.00 0.00 0.00 0.00 0.00 0.00 0.00 0.00 0.00 0.00 0.00 0.00 0.00 0.00 0.00 0.00 0.00 0.00 0.00 0.00 0.00 0.00
0.11 0.09 0.08 0.08 0.06 0.05 0.03 0.01 0.00 0.00 0.00 0.00 0.00 0.00 0.00 0.00 0.00 0.00 0.00 0.00 0.00 0.00 0.00 0.00 0.00 0.00 0.00 0.00 0.00 0.00 0.00 0.00 0.00 0.00 0.00 0.00 0.00 0.00 0.00 0.00 0.00 0.00 0.00 0.00
0.06 0.04 0.04 0.04 0.02 0.00 0.00 0.00 0.00 0.00 0.00 0.00 0.00 0.00 0.00 0.00 0.00 0.00 0.00 0.00 0.00 0.00 0.00 0.00 0.00 0.00 0.00 0.00 0.00 0.00 0.00 0.00 0.00 0.00 0.00 0.00 0.00 0.00 0.00 0.00 0.00 0.00 0.00 0.00
0.02 0.03 0.01 0.00 0.00 0.00 0.00 0.00 0.00 0.00 0.00 0.00 0.00 0.00 0.00 0.00 0.00 0.00 0.00 0.00 0.00 0.00 0.00 0.00 0.00 0.00 0.00 0.00 0.00 0.00 0.00 0.00 0.00 0.00 0.00 0.00 0.00 0.00 0.00 0.00 0.00 0.00 0.00 0.00
0.05 0.05 0.04 0.03 0.03 0.03 0.01 0.00 0.00 0.00 0.00 0.00 0.00 0.00 0.00 0.00 0.00 0.00 0.00 0.00 0.00 0.00 0.00 0.00 0.00 0.00 0.00 0.00 0.00 0.00 0.00 0.00 0.00 0.00 0.00 0.00 0.00 0.00 0.00 0.00 0.00 0.00 0.00 0.00
0.05 0.05 0.05 0.05 0.05 0.03 0.02 0.00 0.00 0.00 0.00 0.00 0.00 0.01 0.01 0.00 0.00 0.00 0.00 0.00 0.00 0.00 0.00 0.00 0.00 0.00 0.00 0.00 0.00 0.00 0.00 0.00 0.00 0.00 0.00 0.00 0.00 0.00 0.00 0.00 0.00 0.00 0.00 0.00
0.05 0.06 0.06 0.05 0.05 0.05 0.03 0.03 0.02 0.02 0.02 0.02 0.02 0.02 0.01 0.01 0.00 0.00 0.00 0.00 0.00 0.00 0.00 0.00 0.00 0.00 0.00 0.00 0.00 0.00 0.00 0.00 0.00 0.00 0.00 0.00 0.00 0.00 0.00 0.00 0.00 0.00 0.00 0.00
MSLP
1009.22 1009.18 1009.36 1009.23 1009.44 1010.02 1010.33 1010.09 1010.19 1009.44 1009.21 1008.60 1008.45 1008.55 1008.89 1009.24 1009.58 1009.94 1010.42 1010.78 1011.14 1011.45 1011.65 1011.97 1012.18 1012.41 1012.98 1013.57 1014.14 1014.66 1015.23 1015.82 1016.56 1017.20 1017.72 1018.36 1018.97 1019.79 1020.42 1021.00 1021.55 1021.98 1022.90 1023.17
1009.84 1009.69 1009.53 1009.26 1009.02 1009.50 1009.68 1009.63 1009.49 1009.13 1008.68 1008.19 1008.36 1008.86 1009.40 1009.81 1010.25 1010.73 1011.45 1011.76 1012.19 1012.49 1012.74 1012.95 1012.93 1013.02 1013.49 1014.06 1014.73 1015.24 1015.74 1016.39 1017.02 1017.59 1018.31 1019.01 1019.71 1020.33 1021.06 1021.79 1022.39 1022.90 1023.40 1023.43
1010.62 1010.34 1009.93 1009.68 1008.72 1008.66 1008.66 1008.61 1008.37 1008.35 1007.67 1007.97 1008.59 1009.22 1009.98 1010.47 1011.10 1011.73 1012.35 1012.77 1013.15 1013.55 1013.90 1014.20 1014.31 1014.26 1014.59 1014.99 1015.43 1015.89 1016.47 1017.08 1017.77 1018.49 1019.16 1019.91 1020.50 1021.07 1021.71 1022.20 1022.77 1023.03 1023.27 1023.37
1010.94 1010.91 1009.95 1008.17 1008.01 1008.02 1008.06 1007.75 1007.83 1007.86 1007.88 1008.22 1008.85 1010.07 1010.90 1011.43 1011.75 1012.66 1013.38 1013.80 1014.11 1014.39 1014.68 1014.95 1015.20 1015.32 1015.38 1015.62 1016.10 1016.66 1017.27 1017.89 1018.55 1019.18 1019.78 1020.50 1021.14 1021.76 1022.33 1022.59 1022.72 1022.91 1023.01 1023.10
1011.01 1010.52 1009.16 1008.10 1007.80 1007.82 1007.87 1006.82 1006.75 1007.21 1007.79 1008.75 1009.69 1010.67 1012.06 1012.71 1013.09 1013.66 1014.28 1014.74 1015.05 1015.38 1015.71 1015.99 1016.08 1016.14 1016.16 1016.63 1017.16 1017.68 1018.28 1018.78 1019.30 1019.82 1020.47 1021.03 1021.59 1021.97 1022.32 1022.52 1022.54 1022.54 1022.68 1022.76
1010.84 1009.96 1008.68 1007.29 1006.70 1006.93 1007.27 1006.62 1006.33 1006.74 1007.49 1008.78 1010.05 1010.89 1012.02 1013.33 1014.09 1014.60 1015.05 1015.45 1015.76 1016.25 1016.54 1016.60 1016.94 1017.03 1017.15 1017.73 1018.22 1018.70 1019.15 1019.60 1020.09 1020.54 1021.07 1021.38 1021.71 1022.04 1022.31 1022.35 1022.44 1022.55 1022.51 1022.56
1009.95 1009.07 1007.76 1006.64 1006.60 1006.97 1007.43 1006.25 1006.02 1006.66 1007.36 1008.51 1009.69 1010.62 1011.67 1013.55 1014.60 1015.16 1015.73 1016.17 1016.50 1016.65 1016.88 1017.43 1017.78 1017.80 1018.00 1018.64 1019.12 1019.68 1020.04 1020.46 1020.91 1021.23 1021.46 1021.75 1022.04 1022.26 1022.31 1022.39 1022.48 1022.47 1022.43 1022.24
1009.14 1008.45 1007.16 1006.11 1006.98 1006.67 1005.47 1005.91 1006.21 1006.88 1007.56 1008.76 1010.16 1011.65 1012.75 1014.06 1015.02 1015.77 1016.23 1016.60 1016.75 1016.97 1017.64 1018.26 1018.44 1018.48 1019.08 1019.67 1020.27 1020.52 1020.83 1021.18 1021.50 1021.78 1022.02 1022.20 1022.32 1022.42 1022.50 1022.51 1022.47 1022.35 1022.24 1022.02
1006.91 1005.94 1005.28 1005.09 1004.61 1004.87 1005.26 1005.75 1006.44 1006.96 1007.93 1009.11 1010.62 1012.12 1013.40 1014.49 1015.46 1016.08 1016.45 1016.88 1017.36 1017.63 1018.24 1018.97 1019.39 1019.65 1019.98 1020.64 1020.88 1021.16 1021.43 1021.82 1022.18 1022.39 1022.54 1022.65 1022.57 1022.57 1022.50 1022.50 1022.53 1022.43 1022.23 1021.87
1006.34 1005.13 1004.89 1004.81 1005.06 1005.33 1005.62 1005.98 1006.45 1007.04 1007.91 1009.22 1010.65 1012.42 1013.66 1014.79 1015.67 1016.29 1016.92 1017.40 1017.89 1018.34 1019.11 1019.96 1020.55 1020.85 1021.09 1021.36 1021.58 1021.72 1022.10 1022.51 1022.73 1022.80 1022.88 1022.99 1022.97 1022.98 1022.89 1022.94 1022.91 1022.71 1022.45 1022.14
1005.32 1004.92 1005.30 1005.17 1005.11 1005.31 1006.00 1006.62 1007.16 1007.83 1008.64 1009.55 1010.91 1012.70 1013.79 1014.97 1015.86 1016.64 1017.35 1018.03 1018.60 1019.28 1020.13 1020.98 1021.54 1021.85 1022.18 1022.21 1022.28 1022.48 1022.81 1023.07 1023.20 1023.32 1023.36 1023.27 1023.36 1023.54 1023.61 1023.70 1023.86 1023.57 1023.27 1023.02
1003.83 1003.40 1003.83 1003.77 1003.90 1005.21 1006.04 1006.62 1007.23 1007.84 1009.48 1010.55 1011.05 1012.20 1013.75 1015.14 1016.22 1017.09 1017.96 1018.72 1019.46 1020.30 1021.11 1021.94 1022.43 1022.74 1023.02 1023.12 1023.13 1023.14 1023.41 1023.69 1023.99 1023.92 1023.93 1023.92 1023.90 1023.92 1024.31 1024.51 1024.27 1024.06 1023.91 1023.65
1003.60 1003.45 1004.35 1005.10 1005.68 1006.03 1006.65 1007.39 1008.07 1008.57 1009.40 1010.54 1012.26 1012.90 1014.04 1015.23 1016.57 1017.52 1018.43 1019.21 1020.06 1021.03 1021.84 1022.54 1023.07 1023.52 1023.92 1024.01 1023.96 1024.05 1024.31 1024.61 1024.70 1024.64 1024.54 1024.52 1024.48 1024.39 1024.20 1024.05 1024.09 1024.08 1024.02 1023.63
1004.30 1004.89 1005.35 1005.85 1005.99 1007.13 1007.78 1008.78 1009.54 1010.10 1010.74 1011.45 1012.61 1014.01 1014.84 1015.90 1017.26 1018.21 1019.17 1020.08 1020.89 1021.57 1022.28 1022.88 1023.54 1024.15 1024.55 1024.64 1024.79 1024.87 1024.95 1025.31 1025.19 1025.19 1025.15 1025.14 1025.01 1024.78 1024.54 1024.30 1023.97 1023.81 1023.72 1023.71
1005.51 1005.16 1005.74 1005.77 1007.00 1007.89 1008.61 1009.50 1010.58 1011.56 1012.22 1012.91 1013.65 1014.28 1015.20 1016.22 1017.32 1018.38 1019.43 1020.53 1021.41 1022.10 1022.89 1023.41 1023.96 1024.54 1024.88 1024.99 1025.19 1025.34 1025.38 1025.59 1025.79 1025.83 1025.81 1025.81 1025.56 1025.32 1025.05 1024.81 1024.45 1024.08 1023.70 1023.40
1005.39 1007.22 1007.28 1007.06 1007.54 1008.88 1009.39 1010.03 1011.03 1012.42 1013.34 1014.18 1014.88 1016.08 1016.93 1017.59 1018.39 1019.33 1020.20 1020.91 1021.50 1022.57 1023.52 1024.01 1024.40 1024.89 1025.12 1025.24 1025.44 1025.71 1025.95 1026.39 1026.38 1026.28 1026.27 1026.16 1026.06 1025.87 1025.66 1025.35 1025.04 1024.70 1024.23 1023.91
1006.80 1008.02 1008.20 1007.95 1010.40 1009.94 1010.00 1010.89 1011.77 1012.94 1013.97 1014.85 1016.00 1017.26 1018.10 1018.77 1019.51 1020.50 1021.30 1021.84 1022.44 1023.26 1023.95 1024.48 1024.80 1025.15 1025.31 1025.50 1025.78 1026.12 1026.40 1026.65 1027.05 1026.80 1026.76 1026.79 1026.69 1026.51 1026.34 1026.08 1025.84 1025.44 1025.06 1024.80
1006.99 1007.29 1008.51 1008.42 1010.17 1011.39 1011.15 1012.02 1012.82 1013.73 1014.80 1015.71 1016.57 1017.33 1018.41 1019.51 1020.21 1021.15 1022.32 1022.77 1023.22 1023.95 1024.41 1024.97 1025.23 1025.47 1025.75 1025.97 1026.26 1026.71 1027.06 1027.23 1027.27 1027.28 1027.29 1027.38 1027.42 1027.22 1026.94 1026.71 1026.36 1025.96 1025.51 1025.07
1007.61 1007.41 1008.53 1009.75 1010.12 1011.55 1011.99 1012.72 1013.82 1014.55 1015.67 1016.65 1017.44 1018.68 1019.57 1020.18 1020.96 1021.69 1023.07 1023.41 1023.86 1024.10 1024.97 1025.34 1025.71 1025.93 1026.18 1026.57 1026.77 1027.18 1027.50 1027.76 1027.75 1027.80 1027.92 1028.06 1027.94 1027.81 1027.49 1027.23 1026.92 1026.51 1026.12 1025.55
1008.66 1008.75 1009.73 1011.28 1011.87 1012.15 1013.03 1014.22 1014.91 1015.86 1016.83 1017.69 1018.82 1019.62 1020.67 1021.35 1022.06 1022.90 1023.43 1023.88 1024.12 1024.56 1025.24 1025.75 1026.06 1026.37 1026.68 1027.09 1027.35 1027.64 1027.99 1028.16 1028.20 1028.25 1028.39 1028.41 1028.38 1028.18 1027.93 1027.72 1027.41 1026.86 1026.39 1025.92
1010.29 1010.79 1011.33 1012.08 1012.87 1013.69 1014.51 1015.26 1015.83 1016.89 1018.01 1018.54 1019.33 1020.49 1021.24 1022.30 1023.20 1023.91 1024.27 1024.31 1024.88 1025.33 1025.76 1026.21 1026.46 1026.71 1027.05 1027.32 1027.61 1028.00 1028.28 1028.44 1028.52 1028.52 1028.64 1028.76 1028.76 1028.56 1028.33 1028.05 1027.61 1027.12 1026.53 1026.00
1011.64 1012.22 1013.10 1013.83 1014.55 1015.39 1016.12 1016.63 1017.26 1018.12 1019.10 1019.88 1020.61 1021.46 1022.33 1023.31 1024.09 1024.58 1024.88 1024.88 1025.36 1025.83 1026.12 1026.53 1026.90 1027.24 1027.44 1027.66 1027.89 1028.23 1028.42 1028.61 1028.67 1028.73 1028.81 1028.94 1028.90 1028.80 1028.51 1028.18 1027.73 1027.20 1026.65 1026.10
1013.44 1013.90 1014.42 1015.11 1015.90 1016.79 1017.65 1018.32 1018.96 1019.37 1020.18 1021.03 1021.84 1022.55 1023.16 1023.87 1024.43 1024.72 1025.12 1025.74 1026.02 1026.31 1026.52 1026.90 1027.23 1027.48 1027.69 1027.96 1028.16 1028.35 1028.56 1028.75 1028.79 1028.84 1028.94 1029.07 1029.09 1028.91 1028.57 1028.13 1027.78 1027.23 1026.65 1026.05
1014.74 1015.45 1016.11 1016.72 1017.22 1017.89 1018.74 1019.75 1020.40 1021.10 1021.53 1022.35 1022.89 1023.43 1023.94 1024.49 1024.97 1025.28 1025.62 1026.07 1026.54 1026.82 1026.97 1027.24 1027.52 1027.70 1027.85 1028.12 1028.31 1028.44 1028.55 1028.62 1028.70 1028.81 1028.87 1029.10 1028.89 1028.66 1028.41 1028.08 1027.60 1027.07 1026.54 1026.00
1016.59 1017.26 1017.81 1018.37 1018.88 1019.68 1020.41 1021.07 1021.66 1022.09 1022.68 1023.34 1023.83 1024.30 1024.48 1024.75 1024.85 1025.67 1026.08 1026.53 1026.87 1027.02 1027.20 1027.41 1027.65 1027.84 1028.06 1028.19 1028.37 1028.46 1028.42 1028.44 1028.55 1028.73 1028.72 1028.72 1028.66 1028.43 1028.13 1027.87 1027.48 1026.90 1026.37 1025.83
1018.48 1019.11 1019.67 1020.03 1020.39 1020.93 1021.54 1022.06 1022.64 1023.19 1023.65 1024.20 1024.67 1024.95 1025.14 1025.35 1025.70 1026.12 1026.59 1026.93 1027.11 1027.26 1027.40 1027.65 1027.83 1028.05 1028.26 1028.38 1028.41 1028.40 1028.37 1028.33 1028.43 1028.46 1028.44 1028.37 1028.29 1028.16 1027.94 1027.69 1027.23 1026.67 1026.17 1025.64
1020.60 1020.93 1021.33 1021.78 1022.36 1022.76 1022.97 1023.30 1023.74 1024.28 1024.59 1024.80 1025.02 1025.31 1025.56 1025.90 1026.31 1026.65 1027.00 1027.23 1027.43 1027.55 1027.67 1027.80 1027.95 1028.14 1028.38 1028.50 1028.42 1028.32 1028.32 1028.20 1028.39 1028.22 1028.08 1028.11 1028.06 1027.88 1027.77 1027.48 1027.02 1026.51 1025.96 1025.37
Thickness
5610 5614 5613 5619 5618 5608 5611 5616 5610 5626 5615 5634 5638 5638 5638 5633 5633 5633 5630 5629 5628 5626 5624 5622 5621 5618 5613 5607 5599 5592 5586 5578 5568 5559 5551 5541 5533 5521 5511 5500 5490 5481 5465 5457
5602 5602 5607 5611 5616 5609 5609 5611 5612 5614 5619 5635 5634 5629 5626 5623 5622 5621 5616 5614 5612 5610 5608 5607 5608 5608 5602 5594 5585 5579 5572 5562 5552 5544 5535 5525 5515 5505 5493 5482 5471 5459 5449 5441
5593 5589 5597 5588 5606 5614 5616 5616 5621 5611 5633 5628 5625 5622 5617 5614 5612 5608 5603 5600 5597 5592 5589 5587 5586 5586 5582 5577 5570 5563 5555 5547 5537 5527 5517 5507 5497 5487 5476 5466 5454 5445 5436 5428
5579 5569 5575 5619 5615 5618 5617 5621 5620 5619 5623 5620 5618 5607 5604 5603 5603 5595 5588 5584 5580 5580 5577 5573 5571 5569 5567 5563 5556 5548 5539 5530 5520 5510 5500 5490 5479 5468 5457 5448 5440 5432 5423 5415
5575 5581 5596 5609 5613 5612 5608 5630 5627 5623 5615 5607 5600 5597 5587 5577 5580 5577 5570 5566 5564 5562 5560 5557 5556 5554 5551 5544 5536 5528 5519 5510 5502 5493 5482 5472 5461 5451 5442 5433 5426 5419 5410 5403
5559 5577 5581 5614 5620 5615 5614 5610 5623 5619 5610 5600 5594 5594 5594 5567 5562 5559 5557 5555 5553 5548 5545 5544 5539 5537 5534 5525 5517 5508 5501 5493 5484 5474 5464 5455 5446 5436 5427 5421 5412 5404 5397 5388
5562 5578 5592 5613 5614 5610 5595 5615 5620 5615 5609 5603 5599 5594 5581 5558 5551 5549 5545 5541 5539 5538 5534 5528 5524 5521 5516 5507 5499 5490 5482 5473 5464 5455 5446 5437 5429 5420 5413 5405 5396 5389 5383 5374
5564 5569 5586 5613 5602 5602 5620 5614 5612 5608 5604 5596 5577 5562 5558 5549 5542 5537 5534 5531 5530 5527 5519 5512 5509 5506 5497 5487 5478 5470 5462 5453 5445 5437 5428 5420 5412 5403 5396 5389 5381 5374 5365 5359
5598 5602 5614 5614 5625 5620 5615 5614 5606 5604 5597 5583 5567 5557 5547 5539 5532 5529 5526 5522 5517 5513 5505 5497 5491 5486 5478 5466 5460 5452 5444 5434 5425 5417 5409 5401 5394 5386 5379 5372 5364 5357 5350 5346
5595 5608 5610 5611 5611 5609 5607 5607 5603 5601 5594 5580 5567 5550 5540 5531 5525 5520 5514 5509 5503 5497 5488 5477 5469 5462 5455 5447 5440 5434 5424 5414 5406 5398 5391 5382 5375 5368 5360 5351 5343 5337 5330 5325
5591 5600 5598 5604 5605 5603 5596 5591 5587 5583 5578 5571 5557 5542 5533 5523 5515 5508 5501 5493 5487 5478 5467 5455 5446 5439 5431 5426 5420 5412 5403 5394 5386 5379 5372 5365 5357 5347 5338 5327 5316 5310 5303 5294
5595 5614 5612 5619 5614 5594 5590 5586 5583 5576 5561 5553 5550 5539 5526 5513 5503 5495 5485 5476 5467 5456 5444 5433 5425 5417 5410 5403 5398 5392 5384 5375 5365 5360 5353 5346 5338 5327 5314 5303 5294 5285 5276 5267
5603 5600 5585 5577 5577 5579 5577 5571 5565 5562 5554 5543 5528 5523 5513 5501 5489 5478 5469 5459 5448 5435 5424 5414 5406 5396 5388 5381 5376 5369 5361 5352 5345 5339 5333 5326 5318 5311 5303 5292 5278 5267 5256 5248
5572 5574 5575 5570 5574 5558 5553 5546 5540 5536 5532 5526 5515 5502 5494 5484 5471 5460 5448 5437 5427 5418 5408 5399 5388 5377 5368 5361 5354 5347 5341 5331 5325 5319 5312 5304 5297 5290 5282 5274 5265 5254 5241 5228
5551 5559 5562 5557 5547 5540 5535 5530 5521 5511 5506 5501 5495 5489 5480 5468 5454 5442 5431 5420 5410 5400 5389 5380 5370 5359 5350 5343 5335 5328 5321 5313 5304 5296 5289 5280 5273 5265 5258 5250 5243 5234 5224 5212
5540 5528 5533 5536 5532 5522 5521 5513 5504 5493 5486 5479 5473 5461 5452 5442 5430 5420 5411 5403 5394 5380 5367 5356 5349 5341 5333 5326 5318 5309 5301 5290 5282 5276 5267 5258 5250 5242 5234 5225 5216 5206 5198 5189
5518 5509 5510 5515 5498 5503 5503 5496 5489 5478 5469 5461 5449 5437 5427 5418 5407 5397 5388 5378 5369 5358 5349 5339 5332 5323 5316 5308 5299 5289 5280 5271 5259 5254 5245 5235 5226 5217 5208 5199 5189 5180 5171 5160
5514 5511 5503 5502 5490 5478 5481 5474 5467 5461 5449 5439 5431 5423 5413 5402 5393 5381 5366 5356 5349 5338 5330 5320 5312 5304 5296 5288 5279 5268 5258 5249 5240 5231 5222 5212 5201 5192 5184 5174 5166 5158 5150 5141
5494 5496 5488 5477 5476 5464 5462 5458 5447 5439 5427 5418 5412 5401 5390 5382 5372 5361 5345 5336 5327 5322 5310 5301 5292 5285 5276 5266 5258 5247 5237 5226 5218 5209 5199 5187 5178 5170 5162 5153 5144 5136 5128 5121
5473 5475 5467 5453 5450 5448 5440 5429 5424 5415 5405 5397 5387 5379 5367 5357 5347 5335 5326 5319 5312 5303 5291 5281 5272 5264 5255 5244 5235 5225 5214 5205 5196 5187 5176 5167 5158 5150 5142 5133 5126 5119 5111 5102
5446 5445 5441 5434 5429 5423 5416 5409 5403 5394 5385 5379 5371 5358 5348 5334 5322 5311 5304 5299 5288 5278 5269 5259 5251 5243 5233 5224 5214 5203 5193 5184 5175 5167 5157 5149 5139 5131 5123 5116 5110 5103 5095 5087
5425 5421 5414 5409 5404 5398 5392 5388 5381 5371 5360 5351 5342 5332 5322 5310 5298 5289 5281 5277 5267 5256 5248 5239 5230 5219 5211 5202 5193 5183 5173 5164 5157 5149 5141 5132 5123 5114 5107 5101 5095 5088 5080 5073
5403 5400 5396 5389 5383 5376 5367 5359 5351 5345 5336 5326 5317 5308 5300 5289 5279 5272 5264 5252 5244 5235 5228 5218 5208 5198 5189 5181 5172 5163 5155 5146 5139 5132 5123 5114 5106 5099 5093 5087 5079 5073 5067 5061
5385 5378 5370 5364 5359 5353 5344 5333 5325 5316 5310 5300 5291 5283 5275 5265 5255 5248 5240 5230 5220 5212 5205 5196 5186 5177 5169 5161 5153 5145 5138 5131 5124 5115 5107 5096 5091 5084 5078 5072 5066 5060 5054 5048
5358 5351 5345 5339 5333 5323 5314 5307 5299 5293 5285 5276 5267 5258 5251 5244 5240 5227 5218 5208 5199 5192 5184 5174 5166 5158 5150 5142 5134 5127 5122 5115 5107 5098 5091 5083 5075 5069 5063 5057 5051 5047 5042 5038
5329 5321 5315 5311 5306 5298 5290 5283 5275 5266 5258 5249 5240 5233 5227 5220 5212 5204 5193 5184 5176 5169 5162 5153 5146 5138 5130 5123 5116 5109 5102 5096 5089 5082 5074 5068 5061 5055 5049 5043 5038 5035 5031 5028
5297 5293 5287 5280 5273 5266 5261 5255 5247 5238 5230 5225 5219 5211 5204 5196 5187 5178 5169 5162 5154 5147 5140 5132 5125 5117 5110 5102 5096 5089 5083 5078 5071 5065 5059 5052 5047 5041 5035 5030 5027 5024 5022 5020